Location: Kamienna Góra
(50.7870°N, 16.0342°E)
Time: 17:32:09
(UTC+01:00)

ISS - Visible Passes

Search period start: 16 January 2019 00:00
Search period end: 26 January 2019 00:00
Orbit: 404 x 407 km, 51.6° (Epoch: 17 January)

Date Brightness Start Highest point End Pass type
(mag) Time Alt. Az. Time Alt. Az. Time Alt. Az.
23 Jan -1.7 18:36:36 10° SSW 18:38:06 18° S 18:38:06 18° S visible
24 Jan -1.6 17:45:42 10° S 17:47:24 14° SE 17:48:29 12° ESE visible
24 Jan -1.3 19:20:08 10° SW 19:21:11 19° SW 19:21:11 19° SW visible
25 Jan -3.0 18:28:24 10° SW 18:31:28 37° SSE 18:31:30 37° SSE visible
